Погода в Куюсе

Россия / Республика Алтай     51°01′39″N   86°14′00″E
темп.,
°C
ветер,
м/с
пор.,
м/с
влажн.,
%
обл.,
%
осадки,
мм/ч
давл.,
гПа
погр.,
м
6 марта, сб
сб601:00−13ююв338689 0.0 103476
04:00−15ююв348885 0.0 103391
07:00−16ююв348489 0.0 103395
10:00−12ююв358099 0.0 1030207
13:00−5ююв347153 0.0 1024372
16:00−2ююв246378 0.0 1021470
19:00−7ююв227578 0.0 102221
22:00−11ююв33760 0.0 102336
7 марта, вс
вс701:00−12ююв338236 0.0 102462
04:00−13ююв3481100 0.0 102287
07:00−13ююв3378100 0.0 102478
10:00−9ююв3474100 0.0 1022176
13:00−3ююв2370100 0.0 1020308
16:000ю1168100 0.0 1020358
19:00−5ююв1278100 0.0 102221
22:00−7ююв1178100 0.0 102521
8 марта, пн
пн801:00−8ююв2282100 0.0 102529
04:00−10ююв2386100 0.0 102451
07:00−12ююв338669 0.0 102453
10:00−8ююв34780 0.0 1021193
13:00−2ююв347216 0.0 1017355
16:00+1ю237532 0.0 1015279
19:00−2ююз128265 0.0 101721
22:00−5ю2386100 0.0 102038
9 марта, вт
вт901:00−5ю2387100 0.0 102254
04:00−7ююв2388100 0.0 102443
07:00−9ююв228953 0.0 102729
10:00−5ююв23849 0.0 1027179
13:000ю23755 0.0 1025582
16:00+1ю13680 0.0 1023698
19:00−4ююв12790 0.0 102421
22:00−7ююв22820 0.0 102524
10 марта, ср
ср1001:00−8ююв23853 0.0 102443
04:00−10ююв23887 0.0 102255
07:00−10ююв33855 0.0 102362
10:00−6ююв35770 0.0 1020205
13:000ююв247318 0.0 1016379
16:00+2ююв237395 0.0 1013394
19:00−2ююв228198 0.0 101325
22:00−3юв3384100 0.0 101356